Temp
-6 -6 -7 -7 -7 -7 -7 -7 -7 -7 -7 -7 -7 -7 -7 -7 -7 -7 -7 -7 -8 -8 -8 -7 -7 -7 -7 -7 -7 -7 -7 -7 -7 -7 -7 -7 -7 -7 -7 -7 -7 -7 -7
-7 -7 -7 -7 -7 -7 -7 -7 -7 -7 -7 -7 -7 -7 -7 -7 -7 -7 -7 -7 -7 -8 -8 -8 -8 -7 -8 -8 -7 -7 -7 -7 -7 -7 -7 -7 -7 -7 -7 -7 -7 -7 -7
-7 -7 -7 -7 -7 -7 -8 -7 -7 -7 -7 -7 -7 -7 -7 -7 -7 -7 -7 -7 -7 -7 -7 -7 -8 -8 -8 -8 -8 -8 -8 -8 -7 -7 -7 -7 -7 -7 -7 -7 -7 -7 -7
-7 -7 -7 -7 -7 -8 -8 -8 -7 -7 -7 -7 -7 -7 -7 -7 -7 -7 -7 -7 -7 -7 -7 -7 -7 -7 -7 -7 -7 -7 -7 -7 -7 -7 -7 -7 -7 -7 -8 -8 -8 -7 -7
-7 -7 -8 -8 -8 -8 -8 -8 -8 -7 -7 -7 -7 -7 -7 -7 -7 -7 -7 -7 -7 -7 -7 -7 -7 -7 -7 -7 -7 -7 -7 -7 -7 -7 -7 -7 -7 -8 -8 -8 -8 -8 -8
-8 -8 -8 -8 -8 -8 -8 -8 -8 -8 -8 -7 -7 -7 -7 -7 -7 -7 -7 -7 -7 -7 -7 -7 -7 -7 -7 -7 -7 -7 -7 -7 -7 -7 -7 -7 -7 -8 -8 -8 -8 -8 -8
-8 -8 -8 -8 -8 -8 -8 -8 -8 -8 -8 -7 -7 -7 -7 -7 -7 -7 -7 -7 -7 -7 -7 -7 -7 -7 -7 -7 -7 -7 -7 -7 -7 -7 -7 -7 -7 -7 -8 -8 -8 -8 -8
-8 -8 -8 -8 -8 -8 -8 -8 -8 -8 -8 -8 -8 -7 -7 -7 -7 -7 -7 -7 -7 -7 -7 -7 -7 -7 -7 -8 -8 -8 -8 -8 -8 -8 -8 -8 -8 -8 -8 -8 -8 -8 -8
-8 -8 -8 -8 -8 -8 -8 -8 -8 -8 -8 -8 -8 -8 -7 -7 -7 -7 -7 -7 -7 -7 -7 -7 -7 -8 -8 -8 -8 -8 -8 -8 -9 -9 -9 -9 -9 -9 -9 -9 -9 -9 -9
-9 -9 -9 -9 -9 -8 -8 -8 -8 -8 -8 -8 -8 -8 -8 -7 -8 -8 -8 -8 -8 -8 -8 -8 -8 -8 -8 -9 -9 -9 -9 -9 -9 -9 -9 -9 -9 -9 -10 -10 -10 -9 -9
-9 -9 -9 -9 -9 -9 -9 -8 -8 -8 -8 -8 -8 -8 -8 -8 -8 -8 -8 -8 -8 -8 -9 -9 -9 -9 -9 -9 -9 -9 -9 -10 -10 -10 -10 -10 -9 -10 -10 -10 -10 -10 -10
-9 -9 -9 -9 -9 -9 -9 -9 -9 -8 -8 -8 -8 -8 -8 -8 -8 -8 -8 -8 -9 -9 -9 -9 -9 -9 -9 -10 -10 -10 -10 -10 -10 -10 -10 -10 -10 -9 -9 -9 -9 -9 -9
-10 -9 -9 -9 -9 -9 -9 -9 -9 -9 -8 -9 -8 -8 -8 -9 -9 -9 -9 -9 -9 -9 -9 -9 -9 -9 -10 -10 -10 -10 -10 -10 -10 -10 -10 -9 -9 -9 -9 -9 -9 -10 -10
-10 -9 -9 -9 -9 -9 -9 -9 -9 -9 -9 -9 -9 -9 -9 -9 -9 -9 -9 -9 -9 -9 -9 -9 -9 -10 -10 -10 -10 -10 -10 -10 -10 -9 -9 -9 -9 -9 -10 -10 -10 -10 -10
-10 -9 -9 -9 -9 -9 -9 -9 -9 -9 -9 -9 -9 -9 -9 -9 -9 -9 -9 -9 -9 -10 -10 -10 -10 -10 -10 -10 -10 -10 -10 -9 -9 -9 -10 -10 -10 -10 -10 -10 -11 -11 -10
-10 -9 -9 -9 -9 -9 -9 -9 -9 -9 -9 -9 -9 -9 -9 -9 -9 -9 -10 -10 -10 -10 -10 -10 -10 -10 -10 -10 -10 -10 -10 -10 -10 -10 -10 -10 -10 -10 -11 -11 -12 -12 -11
-10 -10 -10 -10 -10 -10 -9 -9 -9 -9 -9 -9 -9 -9 -10 -10 -10 -10 -10 -10 -10 -10 -10 -10 -10 -10 -10 -10 -10 -10 -10 -10 -10 -10 -10 -11 -12 -12 -12 -12 -12 -12 -11
-10 -10 -10 -10 -10 -10 -9 -10 -10 -10 -9 -9 -9 -9 -10 -10 -10 -10 -10 -10 -10 -10 -10 -10 -10 -10 -10 -11 -11 -11 -11 -12 -12 -12 -12 -12 -12 -12 -12 -12 -12 -12 -12
-10 -10 -10 -10 -10 -10 -10 -10 -10 -10 -10 -10 -10 -10 -10 -10 -10 -10 -10 -10 -10 -10 -11 -11 -11 -11 -11 -11 -11 -11 -12 -12 -12 -12 -12 -12 -12 -12 -12 -12 -12 -12 -12
-10 -10 -10 -10 -10 -10 -10 -10 -10 -10 -10 -10 -10 -11 -11 -11 -11 -11 -11 -11 -11 -11 -11 -12 -12 -12 -12 -12 -12 -12 -12 -12 -12 -12 -11 -12 -12 -12 -12 -12 -12 -12 -12
-11 -11 -10 -10 -10 -10 -10 -10 -10 -10 -10 -11 -11 -11 -11 -11 -11 -11 -11 -11 -11 -12 -12 -12 -12 -12 -12 -13 -13 -12 -12 -12 -12 -12 -12 -12 -12 -11 -12 -12 -12 -12 -12
-11 -11 -11 -11 -10 -10 -10 -10 -10 -10 -11 -11 -11 -11 -11 -12 -12 -12 -12 -12 -12 -12 -12 -12 -12 -13 -14 -15 -14 -13 -12 -12 -12 -12 -12 -12 -12 -12 -12 -12 -12 -12 -12
-11 -11 -11 -10 -11 -10 -10 -10 -11 -11 -11 -12 -12 -12 -12 -12 -12 -12 -12 -12 -13 -13 -12 -12 -12 -13 -14 -14 -13 -13 -12 -12 -12 -12 -12 -12 -12 -12 -12 -12 -13 -12 -12
-11 -11 -11 -10 -10 -10 -11 -11 -12 -12 -12 -12 -12 -12 -12 -12 -12 -12 -12 -13 -13 -13 -13 -12 -12 -13 -13 -13 -13 -13 -13 -13 -13 -12 -12 -12 -12 -12 -12 -12 -12 -12 -12
-11 -10 -10 -10 -10 -11 -12 -12 -12 -12 -12 -12 -12 -12 -12 -12 -12 -13 -13 -13 -13 -13 -13 -13 -13 -13 -13 -14 -14 -13 -14 -14 -13 -12 -11 -12 -12 -12 -12 -12 -13 -12 -12
-10 -11 -11 -11 -12 -12 -12 -12 -12 -12 -12 -13 -12 -12 -12 -12 -12 -13 -13 -13 -13 -13 -13 -13 -13 -13 -13 -13 -13 -13 -14 -14 -14 -14 -13 -12 -12 -12 -13 -13 -13 -13 -13
Height
5892 5892 5891 5891 5891 5891 5890 5890 5889 5889 5888 5888 5887 5886 5885 5885 5884 5882 5881 5880 5878 5877 5875 5874 5873 5871 5871 5870 5869 5869 5868 5868 5867 5866 5865 5864 5863 5862 5862 5861 5860 5859 5859
5892 5891 5891 5891 5891 5891 5890 5890 5890 5889 5888 5888 5887 5886 5885 5884 5883 5882 5880 5879 5877 5876 5874 5873 5872 5870 5869 5867 5866 5866 5865 5864 5863 5863 5862 5861 5860 5859 5858 5858 5857 5856 5855
5892 5891 5891 5891 5891 5890 5890 5890 5889 5889 5888 5888 5887 5886 5885 5884 5883 5881 5879 5878 5876 5875 5873 5872 5870 5869 5867 5866 5864 5863 5862 5861 5860 5859 5858 5858 5856 5855 5855 5854 5853 5852 5852
5891 5891 5890 5890 5890 5890 5890 5890 5889 5888 5887 5887 5886 5885 5884 5883 5882 5880 5879 5877 5875 5873 5872 5870 5869 5867 5865 5864 5862 5861 5860 5859 5858 5857 5855 5854 5854 5853 5852 5851 5850 5849 5848
5890 5890 5890 5890 5890 5889 5889 5889 5888 5887 5886 5886 5885 5884 5883 5881 5880 5878 5877 5875 5873 5871 5869 5867 5866 5864 5863 5862 5860 5858 5857 5856 5854 5853 5852 5851 5850 5849 5848 5847 5846 5845 5844
5888 5888 5889 5889 5889 5888 5888 5888 5887 5886 5886 5885 5883 5882 5881 5879 5878 5877 5875 5873 5871 5869 5867 5865 5863 5861 5859 5858 5857 5855 5853 5851 5850 5849 5847 5846 5845 5844 5843 5841 5840 5839 5838
5887 5887 5887 5888 5888 5887 5887 5887 5886 5885 5884 5883 5882 5880 5878 5877 5875 5874 5872 5870 5868 5866 5863 5861 5859 5857 5855 5853 5852 5850 5849 5847 5845 5843 5842 5841 5839 5838 5836 5835 5834 5832 5832
5884 5885 5885 5886 5886 5886 5885 5885 5885 5884 5882 5881 5880 5878 5876 5874 5872 5870 5868 5866 5864 5862 5859 5857 5854 5852 5851 5849 5847 5845 5843 5841 5839 5837 5836 5835 5833 5832 5830 5828 5827 5826 5825
5882 5883 5883 5883 5884 5884 5883 5883 5883 5882 5880 5879 5877 5875 5873 5871 5869 5867 5864 5862 5859 5857 5855 5852 5849 5847 5845 5843 5841 5840 5838 5837 5835 5833 5831 5829 5827 5826 5824 5822 5821 5820 5819
5879 5881 5881 5881 5882 5882 5882 5881 5880 5879 5878 5876 5875 5873 5870 5868 5865 5862 5860 5857 5854 5851 5849 5846 5844 5842 5840 5838 5836 5834 5832 5831 5829 5827 5825 5823 5821 5819 5817 5815 5814 5813 5812
5877 5878 5879 5879 5880 5880 5880 5879 5878 5876 5875 5873 5871 5869 5866 5863 5860 5858 5855 5852 5849 5846 5844 5841 5839 5836 5834 5832 5830 5828 5826 5824 5822 5820 5818 5817 5814 5812 5811 5809 5807 5806 5804
5875 5876 5877 5877 5877 5877 5877 5876 5875 5873 5872 5869 5867 5864 5861 5858 5855 5853 5850 5847 5844 5841 5838 5836 5833 5831 5828 5826 5824 5821 5819 5817 5814 5812 5810 5807 5805 5804 5802 5800 5799 5798 5796
5872 5874 5874 5875 5875 5875 5874 5873 5872 5870 5868 5865 5862 5859 5856 5853 5850 5847 5845 5842 5839 5836 5833 5830 5827 5824 5822 5819 5816 5814 5811 5808 5806 5803 5801 5798 5796 5794 5792 5790 5789 5787 5785
5870 5871 5872 5872 5872 5872 5871 5869 5868 5866 5863 5860 5857 5854 5851 5848 5845 5842 5839 5836 5833 5830 5827 5824 5820 5817 5814 5811 5808 5805 5802 5799 5796 5794 5791 5789 5787 5784 5782 5779 5777 5775 5773
5867 5868 5869 5869 5869 5867 5866 5866 5863 5861 5858 5856 5853 5849 5846 5843 5839 5837 5833 5830 5827 5823 5820 5817 5813 5809 5806 5802 5799 5796 5792 5789 5786 5784 5781 5779 5776 5774 5771 5769 5767 5765 5762
5864 5865 5865 5865 5865 5864 5863 5861 5859 5856 5853 5851 5848 5845 5842 5838 5834 5831 5827 5823 5820 5816 5812 5808 5804 5800 5796 5792 5789 5786 5782 5779 5776 5774 5771 5768 5766 5764 5762 5760 5758 5756 5753
5860 5861 5861 5861 5860 5859 5858 5856 5854 5851 5848 5846 5843 5839 5836 5832 5828 5825 5821 5817 5812 5808 5803 5799 5795 5791 5786 5782 5779 5776 5772 5769 5766 5763 5760 5758 5757 5756 5755 5753 5751 5749 5746
5857 5857 5857 5857 5856 5855 5853 5851 5848 5845 5843 5840 5836 5832 5829 5825 5821 5817 5814 5809 5804 5799 5794 5789 5784 5779 5775 5771 5768 5765 5762 5759 5757 5755 5753 5752 5751 5749 5748 5746 5744 5741 5740
5853 5853 5853 5852 5851 5850 5848 5845 5842 5840 5837 5833 5829 5825 5821 5817 5813 5809 5805 5800 5794 5789 5784 5779 5774 5770 5764 5760 5757 5755 5753 5751 5749 5747 5746 5745 5744 5742 5741 5738 5736 5735 5733
5848 5848 5847 5846 5845 5844 5842 5839 5836 5833 5829 5825 5821 5817 5813 5809 5805 5801 5796 5791 5786 5781 5776 5771 5765 5760 5754 5749 5747 5746 5745 5743 5741 5739 5738 5738 5737 5735 5734 5732 5731 5730 5728
5843 5842 5842 5841 5840 5837 5834 5831 5828 5825 5821 5817 5813 5809 5804 5800 5796 5792 5787 5783 5778 5773 5768 5763 5756 5749 5741 5735 5735 5737 5736 5735 5733 5732 5732 5731 5730 5730 5729 5728 5727 5725 5723
5838 5838 5836 5835 5833 5830 5827 5823 5820 5816 5812 5808 5804 5801 5796 5791 5787 5783 5778 5774 5770 5765 5761 5756 5748 5737 5727 5723 5725 5729 5730 5729 5727 5727 5727 5726 5726 5725 5725 5724 5722 5720 5717
5833 5831 5830 5827 5824 5821 5819 5815 5811 5807 5803 5799 5795 5791 5787 5783 5778 5774 5770 5766 5762 5759 5754 5750 5743 5734 5727 5722 5722 5723 5723 5723 5723 5723 5723 5722 5722 5721 5720 5719 5717 5715 5713
5826 5824 5821 5819 5816 5812 5808 5805 5801 5798 5793 5788 5784 5780 5777 5774 5770 5766 5762 5759 5756 5752 5748 5743 5738 5732 5726 5723 5720 5719 5719 5719 5720 5720 5719 5719 5719 5718 5717 5715 5714 5711 5708
5818 5816 5813 5810 5806 5803 5799 5795 5791 5787 5782 5777 5774 5770 5768 5765 5762 5758 5754 5751 5749 5746 5741 5738 5734 5729 5725 5723 5721 5719 5718 5717 5716 5715 5714 5714 5715 5714 5712 5710 5709 5706 5704
5809 5806 5803 5800 5797 5793 5789 5785 5780 5776 5772 5767 5764 5761 5758 5756 5753 5750 5746 5744 5742 5739 5735 5732 5728 5725 5722 5720 5719 5717 5716 5715 5715 5713 5711 5710 5709 5709 5708 5706 5704 5703 5701
Wind_Speed
2 2 1 2 3 3 5 4 4 3 3 3 4 5 6 8 9 10 10 10 11 10 9 8 8 9 14 15 14 14 13 13 13 13 14 13 13 13 14 14 14 14 14
4 2 2 2 1 2 2 2 2 3 4 5 6 8 8 8 9 10 11 11 11 11 10 9 9 9 9 9 12 15 16 16 17 17 18 18 18 18 18 18 18 18 17
6 3 3 2 1 0 1 2 3 4 5 6 7 8 9 10 11 12 13 13 12 12 13 12 12 13 12 12 12 12 11 11 11 12 13 14 16 18 19 19 19 19 19
8 6 5 4 2 1 1 2 4 5 6 7 8 9 10 11 12 13 15 15 16 15 14 15 15 15 16 15 15 16 16 16 17 17 18 17 17 17 17 18 19 19 19
9 7 6 5 4 2 3 4 5 6 7 9 10 12 12 13 15 16 17 18 18 19 19 18 18 17 17 18 19 21 21 22 22 22 23 23 23 23 23 23 24 24 24
12 9 8 7 6 5 4 5 7 8 9 10 12 13 14 14 16 17 18 20 21 21 23 22 22 21 21 21 21 23 23 24 25 26 27 27 27 28 28 29 30 30 30
14 11 10 9 8 6 6 7 8 10 11 12 13 14 15 16 17 19 20 21 24 25 25 25 25 25 24 25 25 25 25 25 26 28 28 29 29 29 30 31 31 31 31
15 13 12 11 9 7 7 8 10 11 13 14 15 17 18 19 21 21 22 24 26 27 28 29 28 27 26 26 26 27 27 27 27 27 27 28 28 29 30 31 31 32 32
17 15 13 11 9 8 8 9 11 12 14 17 18 20 21 22 23 24 25 26 27 28 29 30 30 29 29 28 28 28 29 28 28 29 29 30 31 30 32 34 34 34 34
17 15 12 10 10 9 9 11 13 15 17 19 21 23 24 26 26 27 29 30 31 32 32 32 31 30 29 29 29 29 29 30 30 30 30 31 32 31 33 34 34 34 35
18 16 13 11 10 10 10 13 15 17 19 21 23 25 27 29 31 32 34 36 35 35 33 32 32 31 30 29 29 30 30 31 33 33 35 35 37 37 38 39 39 40 40
19 16 14 12 11 11 14 15 18 19 22 25 27 29 31 32 32 32 31 32 31 31 31 32 32 31 31 31 33 34 36 37 38 40 42 42 42 43 44 44 45 45 46
18 15 14 13 12 14 17 19 21 23 25 28 31 34 33 32 31 31 30 30 29 30 31 31 33 34 35 36 38 39 41 43 44 44 44 46 46 46 47 47 48 49 50
16 16 14 14 15 17 19 22 24 26 28 31 33 32 31 30 30 31 31 32 32 33 33 34 35 37 38 41 43 45 46 46 46 46 46 46 47 47 46 47 48 50 51
18 16 18 18 19 21 24 25 27 29 30 32 35 34 31 29 29 30 31 33 34 36 37 39 40 42 43 44 45 46 47 46 45 45 46 46 47 47 47 46 45 44 44
21 20 21 21 22 23 25 27 30 31 32 34 34 33 32 30 30 31 33 35 37 39 41 44 45 46 45 45 45 45 46 46 47 47 48 49 48 44 39 35 32 31 31
24 24 24 24 24 25 29 31 32 32 34 34 35 33 32 32 33 34 36 39 42 44 45 45 44 44 43 45 45 45 45 45 45 44 41 36 31 29 28 30 31 33 34
26 27 26 28 27 29 31 32 34 35 35 36 35 35 35 36 37 38 40 43 45 45 45 44 43 44 44 43 42 41 40 38 35 32 28 27 28 28 29 30 32 32 31
29 29 29 29 29 31 32 34 36 37 36 36 37 38 38 39 40 42 44 46 46 46 45 44 44 44 44 43 40 39 37 30 30 30 32 30 28 28 30 31 30 27 22
31 31 31 31 31 32 35 37 38 38 38 39 39 40 41 42 43 44 45 45 46 46 44 43 42 43 46 46 41 36 31 30 33 31 29 26 24 26 23 16 15 16 19
32 32 33 34 34 36 37 38 39 40 41 41 42 43 43 44 45 46 46 46 46 43 41 39 42 47 51 48 39 32 29 31 28 25 22 18 17 13 15 14 15 17 20
33 34 35 36 38 38 39 40 43 43 44 44 45 46 46 47 47 46 44 43 41 39 37 34 35 39 34 26 28 26 26 24 22 19 15 10 12 15 15 15 18 21 24
34 35 38 39 38 40 41 45 46 46 47 47 48 48 46 44 42 40 40 38 37 36 34 31 32 29 25 17 19 19 22 20 17 13 11 12 13 14 16 19 24 26 23
35 36 35 38 41 44 47 48 48 48 49 49 47 45 41 40 40 39 37 36 34 34 33 32 29 26 25 18 13 12 13 13 14 13 12 13 13 15 18 21 22 19 17
33 36 40 43 47 49 49 49 50 50 49 47 46 44 42 42 40 37 35 34 32 32 31 29 28 22 20 13 9 10 12 14 15 16 17 13 13 16 19 18 15 16 16
39 42 46 48 48 49 50 51 50 50 49 48 47 46 46 44 41 37 36 32 31 32 31 29 27 24 18 17 15 15 15 15 14 15 17 18 18 18 17 16 14 13 14
Wind_Direction
332 342 6 23 36 52 77 75 73 68 39 12 355 354 355 351 346 343 339 331 331 330 324 326 333 301 279 274 273 274 275 276 278 280 282 284 287 289 288 287 287 286 285
295 308 328 348 358 16 48 51 42 36 16 360 357 348 353 353 349 345 339 332 326 322 320 317 316 315 318 307 288 278 276 275 275 275 274 274 275 276 277 279 279 278 278
279 276 281 284 280 271 1 15 28 28 22 9 3 355 352 350 349 347 344 340 333 319 311 307 305 302 301 301 300 300 296 292 289 287 283 280 278 276 276 276 278 278 276
271 263 261 242 235 225 8 359 347 344 348 343 337 339 336 334 333 332 331 330 329 327 320 309 300 295 293 291 291 291 290 289 288 286 285 284 281 279 279 279 278 279 278
261 257 254 234 217 233 270 301 318 326 330 329 330 328 328 324 321 320 319 318 319 320 317 313 308 299 291 287 285 284 283 283 284 283 281 281 281 281 279 278 277 277 278
250 244 244 236 235 246 265 292 307 315 322 324 325 323 324 322 319 317 318 315 313 314 314 311 307 302 297 293 288 284 282 281 280 281 282 280 278 277 277 277 276 275 274
241 235 235 236 239 250 270 293 305 315 320 323 324 324 322 321 319 317 316 316 314 313 310 309 306 302 298 294 291 288 285 285 282 280 279 278 278 278 276 274 273 273 273
232 231 230 235 244 263 281 300 310 316 319 319 321 319 318 319 317 316 315 315 313 312 310 309 307 304 300 295 292 291 289 286 286 286 285 283 281 280 279 278 276 274 272
227 226 226 234 251 269 286 298 306 309 312 314 317 316 316 315 314 312 310 311 309 307 306 304 304 302 301 297 293 290 289 288 287 286 285 283 283 280 278 277 277 277 278
224 228 230 241 253 267 285 296 302 305 309 313 314 313 312 309 307 303 304 305 305 304 302 302 301 299 297 295 293 292 290 288 286 285 283 282 281 282 282 282 281 279 278
221 226 230 239 252 268 283 291 297 303 307 310 309 307 305 304 304 303 305 306 305 306 305 304 301 299 295 293 290 289 288 288 289 289 288 286 284 283 283 283 284 285 284
222 227 233 242 255 273 283 291 297 303 306 309 308 306 306 306 305 306 308 307 307 306 305 304 300 295 291 290 290 289 289 289 289 290 289 288 286 285 285 285 284 283 283
224 231 236 247 260 274 286 291 298 307 309 310 314 310 308 305 305 306 307 309 308 308 306 302 298 294 290 288 288 288 288 288 288 288 287 287 287 287 287 286 286 284 282
230 235 245 258 270 275 285 299 304 307 310 315 316 314 310 309 307 306 305 305 303 301 299 296 294 291 290 289 289 289 289 289 290 289 288 287 287 286 285 284 283 283 283
243 245 255 262 273 286 292 295 302 306 311 314 315 310 308 307 306 305 302 302 300 298 297 295 293 291 290 289 288 288 288 288 287 286 286 285 285 285 286 288 290 291 289
235 247 254 262 268 274 290 297 301 305 310 312 310 307 306 303 300 299 298 298 296 296 295 296 296 293 292 290 289 288 288 288 287 286 285 285 285 286 287 287 288 291 299
240 246 257 266 275 286 290 295 300 305 307 306 307 304 301 298 296 297 297 296 297 298 297 296 294 294 293 293 291 291 290 288 287 287 286 286 284 285 285 282 286 289 291
242 252 261 267 279 285 289 295 300 303 304 304 304 304 300 297 296 296 296 297 298 299 298 296 296 295 293 291 292 293 291 290 291 289 286 286 286 285 287 289 288 286 287
248 257 263 274 281 286 293 299 301 301 300 298 299 298 295 295 295 295 297 298 298 297 297 298 297 295 293 292 291 290 291 287 287 283 285 284 282 284 287 286 286 288 288
256 263 271 279 284 291 296 298 299 298 297 295 296 296 295 295 295 296 297 298 297 298 299 300 300 297 293 288 284 282 285 286 287 284 282 279 280 281 285 288 292 290 294
262 270 277 282 291 294 295 298 297 294 293 293 295 295 297 297 297 297 298 298 300 301 304 307 309 304 293 279 274 275 278 288 284 280 279 275 272 264 283 291 292 293 292
270 275 283 290 292 293 295 295 291 290 292 294 296 297 297 296 297 298 300 301 301 301 304 313 321 331 320 288 270 270 276 280 277 274 273 254 264 276 278 283 289 293 295
277 284 287 289 289 292 291 288 288 289 293 295 296 296 295 297 298 299 299 300 299 304 305 308 319 330 323 306 284 275 278 271 271 263 260 265 271 276 284 288 293 297 294
282 284 284 287 288 286 285 286 289 293 294 293 293 293 295 296 298 299 300 300 299 304 305 305 313 326 321 308 285 271 268 267 267 256 260 264 264 271 280 287 293 291 298
279 281 282 282 281 283 287 290 291 291 290 290 289 290 292 295 297 296 296 295 294 301 303 304 304 313 315 296 272 268 273 280 283 282 277 260 266 285 292 293 292 299 303
274 274 275 279 284 286 289 290 291 289 288 287 287 288 291 293 294 292 291 288 291 299 302 303 299 296 297 278 271 273 272 276 278 281 285 287 292 295 292 291 291 299 303